| time (UTC) | temp F | wind direction | speed knots | gust knots | rain 1hr in | rain 24hr in | rain mn in | humidity % | barometer mb |
| 20260504173635 | 55 | 342 | 8.7 | 11.3 | 0.00 | 0.00 | 0.00 | 43 | 1017.3 |
| 20260504173132 | 55 | 288 | 8.7 | 11.3 | 0.00 | 0.00 | 0.00 | 42 | 1017.0 |
| 20260504172628 | 57 | 307 | 13.9 | 15.6 | 0.00 | 0.00 | 0.00 | 40 | 1017.3 |
| 20260504172125 | 53 | 14 | 11.3 | 13.9 | 0.00 | 0.00 | 0.00 | 42 | 1017.2 |
| 20260504171622 | 53 | 300 | 15.6 | 19.1 | 0.00 | 0.00 | 0.00 | 43 | 1017.0 |
| 20260504171119 | 54 | 303 | 12.2 | 18.2 | 0.00 | 0.00 | 0.00 | 44 | 1017.2 |
| 20260504170615 | 54 | 291 | 11.3 | 14.8 | 0.00 | 0.00 | 0.00 | 45 | 1017.0 |
| 20260504170113 | 53 | 304 | 7.8 | 9.6 | 0.00 | 0.00 | 0.00 | 47 | 1017.0 |
| 20260504150958 | 49 | 266 | 11.3 | 12.2 | 0.00 | 0.00 | 0.00 | 57 | 1017.6 |
| 20260504150455 | 49 | 275 | 9.6 | 11.3 | 0.00 | 0.00 | 0.00 | 58 | 1017.7 |
| 20260504140922 | 47 | 262 | 9.6 | 11.3 | 0.00 | 0.00 | 0.00 | 63 | 1017.7 |
| 20260504140418 | 47 | 271 | 8.7 | 9.6 | 0.00 | 0.00 | 0.00 | 63 | 1017.6 |
| 20260504130343 | 45 | 277 | 6.1 | 7.0 | 0.00 | 0.00 | 0.00 | 66 | 1017.6 |
| 20260504120301 | 44 | 271 | 5.2 | 6.1 | 0.00 | 0.00 | 0.00 | 65 | 1017.6 |
| 20260504110224 | 44 | 283 | 3.5 | 3.5 | 0.00 | 0.00 | 0.00 | 66 | 1017.9 |
| 20260504100142 | 46 | 2 | 6.1 | 7.0 | 0.00 | 0.00 | 0.00 | 61 | 1018.2 |
| 20260504090105 | 47 | 5 | 4.3 | 6.1 | 0.00 | 0.00 | 0.00 | 57 | 1017.7 |
| 20260504081535 | 50 | 352 | 9.6 | 11.3 | 0.00 | 0.00 | 0.00 | 51 | 1017.2 |
| 20260504081031 | 50 | 12 | 8.7 | 9.6 | 0.00 | 0.00 | 0.00 | 51 | 1017.0 |
| 20260504080528 | 50 | 7 | 8.7 | 9.6 | 0.00 | 0.00 | 0.00 | 51 | 1016.8 |
| 20260504050347 | 55 | 33 | 7.8 | 8.7 | 0.00 | 0.00 | 0.00 | 43 | 1011.7 |
| 20260504045844 | 55 | 3 | 6.1 | 7.8 | 0.00 | 0.00 | 0.00 | 43 | 1011.7 |
| 20260504045343 | 55 | 37 | 3.5 | 5.2 | 0.00 | 0.00 | 0.00 | 43 | 1011.4 |
| 20260504044841 | 56 | 24 | 3.5 | 5.2 | 0.00 | 0.00 | 0.00 | 42 | 1011.4 |
| 20260504044338 | 56 | 41 | 3.5 | 6.1 | 0.00 | 0.00 | 0.00 | 42 | 1011.3 |
| 20260504043836 | 56 | 14 | 4.3 | 5.2 | 0.00 | 0.00 | 0.00 | 42 | 1011.2 |
| 20260504043332 | 56 | 9 | 4.3 | 6.1 | 0.00 | 0.00 | 0.00 | 42 | 1010.9 |
| 20260504042829 | 56 | 39 | 4.3 | 5.2 | 0.00 | 0.00 | 0.00 | 41 | 1011.0 |
| 20260504042325 | 57 | 37 | 5.2 | 6.1 | 0.00 | 0.00 | 0.00 | 40 | 1010.8 |
| 20260504041822 | 57 | 26 | 5.2 | 6.1 | 0.00 | 0.00 | 0.00 | 40 | 1010.6 |
| 20260504041318 | 58 | 18 | 4.3 | 5.2 | 0.00 | 0.00 | 0.00 | 39 | 1010.6 |
| 20260504040814 | 59 | 13 | 5.2 | 6.1 | 0.00 | 0.00 | 0.00 | 39 | 1010.6 |
| 20260504040313 | 59 | 358 | 8.7 | 13.0 | 0.00 | 0.00 | 0.00 | 38 | 1010.6 |
| 20260504035808 | 59 | 16 | 7.0 | 9.6 | 0.00 | 0.06 | 0.06 | 38 | 1010.4 |
| 20260504035305 | 60 | 3 | 7.8 | 9.6 | 0.00 | 0.06 | 0.06 | 37 | 1010.2 |
| 20260504034803 | 60 | 30 | 5.2 | 6.1 | 0.00 | 0.06 | 0.06 | 37 | 1010.0 |
| 20260504034300 | 60 | 55 | 7.8 | 8.7 | 0.00 | 0.06 | 0.06 | 36 | 1009.8 |
| 20260504033757 | 61 | 58 | 6.1 | 9.6 | 0.00 | 0.06 | 0.06 | 35 | 1009.8 |
| 20260504033255 | 61 | 31 | 7.0 | 8.7 | 0.00 | 0.06 | 0.06 | 34 | 1009.6 |
| 20260504032751 | 60 | 33 | 4.3 | 5.2 | 0.00 | 0.06 | 0.06 | 34 | 1009.5 |
| 20260504032248 | 59 | 32 | 4.3 | 5.2 | 0.00 | 0.06 | 0.06 | 33 | 1009.6 |
| 20260504031745 | 60 | 17 | 4.3 | 5.2 | 0.00 | 0.06 | 0.06 | 32 | 1009.5 |
| 20260504031243 | 62 | 18 | 6.1 | 7.0 | 0.00 | 0.06 | 0.06 | 31 | 1009.3 |
| 20260504030738 | 63 | 348 | 6.1 | 6.1 | 0.00 | 0.06 | 0.06 | 29 | 1009.1 |
| 20260504030236 | 63 | 0 | 4.3 | 6.1 | 0.00 | 0.06 | 0.06 | 28 | 1009.2 |
| 20260504025732 | 63 | 356 | 4.3 | 5.2 | 0.00 | 0.06 | 0.06 | 29 | 1009.1 |
| 20260504025229 | 63 | 358 | 4.3 | 5.2 | 0.00 | 0.06 | 0.06 | 28 | 1009.1 |
| 20260504024726 | 63 | 357 | 3.5 | 3.5 | 0.00 | 0.06 | 0.06 | 29 | 1009.1 |
| 20260504024222 | 64 | 4 | 4.3 | 5.2 | 0.00 | 0.06 | 0.06 | 28 | 1009.1 |
| 20260504023719 | 63 | 359 | 5.2 | 6.1 | 0.00 | 0.06 | 0.06 | 29 | 1009.1 |
| 20260504023215 | 62 | 2 | 4.3 | 5.2 | 0.00 | 0.06 | 0.06 | 30 | 1008.9 |
| 20260504022712 | 64 | 353 | 2.6 | 2.6 | 0.00 | 0.06 | 0.06 | 29 | 1009.1 |
| 20260504022208 | 65 | 2 | 4.3 | 5.2 | 0.00 | 0.06 | 0.06 | 28 | 1008.9 |
| 20260504021706 | 66 | 351 | 2.6 | 3.5 | 0.00 | 0.06 | 0.06 | 28 | 1009.0 |
| 20260504021202 | 67 | 5 | 5.2 | 6.1 | 0.00 | 0.06 | 0.06 | 27 | 1009.1 |
| 20260504020659 | 68 | 6 | 5.2 | 6.1 | 0.00 | 0.06 | 0.06 | 26 | 1008.9 |
| 20260504020155 | 68 | 7 | 7.0 | 7.8 | 0.00 | 0.06 | 0.06 | 26 | 1009.0 |
| 20260504015652 | 69 | 356 | 7.0 | 7.8 | 0.00 | 0.06 | 0.06 | 26 | 1009.0 |
| 20260504015148 | 70 | 359 | 7.8 | 8.7 | 0.00 | 0.06 | 0.06 | 25 | 1008.8 |
| 20260504014644 | 70 | 7 | 7.8 | 7.8 | 0.00 | 0.06 | 0.06 | 25 | 1008.8 |
| 20260504014142 | 71 | 17 | 8.7 | 9.6 | 0.00 | 0.06 | 0.06 | 24 | 1008.8 |
| 20260504013639 | 71 | 358 | 5.2 | 6.1 | 0.00 | 0.06 | 0.06 | 25 | 1008.8 |
| 20260504013136 | 71 | 27 | 3.5 | 3.5 | 0.00 | 0.06 | 0.06 | 25 | 1008.9 |
| 20260504012633 | 72 | 0 | 7.0 | 7.8 | 0.00 | 0.06 | 0.06 | 24 | 1008.8 |
| 20260504012131 | 73 | 6 | 7.0 | 7.8 | 0.00 | 0.06 | 0.06 | 23 | 1008.8 |
| 20260504011627 | 73 | 11 | 8.7 | 9.6 | 0.00 | 0.06 | 0.06 | 23 | 1008.9 |
| 20260504011124 | 73 | 346 | 9.6 | 9.6 | 0.00 | 0.06 | 0.06 | 23 | 1008.9 |
| 20260504010620 | 74 | 6 | 7.8 | 7.8 | 0.00 | 0.06 | 0.06 | 22 | 1009.0 |
| 20260504010116 | 74 | 0 | 7.0 | 7.8 | 0.00 | 0.06 | 0.06 | 22 | 1009.1 |
| 20260504005613 | 74 | 326 | 6.1 | 8.7 | 0.00 | 0.06 | 0.06 | 22 | 1008.9 |
| 20260504005110 | 75 | 300 | 7.8 | 9.6 | 0.00 | 0.06 | 0.06 | 22 | 1009.2 |
| 20260504004608 | 75 | 305 | 6.1 | 7.8 | 0.00 | 0.06 | 0.06 | 22 | 1009.0 |
| 20260504004105 | 75 | 355 | 7.8 | 9.6 | 0.00 | 0.06 | 0.06 | 21 | 1009.1 |
| 20260504003601 | 75 | 333 | 5.2 | 6.1 | 0.00 | 0.06 | 0.06 | 22 | 1009.2 |
| 20260504003058 | 75 | 305 | 11.3 | 13.0 | 0.00 | 0.06 | 0.06 | 21 | 1009.5 |
| 20260504002555 | 75 | 315 | 7.8 | 8.7 | 0.00 | 0.06 | 0.06 | 22 | 1009.3 |
| 20260504002052 | 75 | 313 | 6.1 | 8.7 | 0.00 | 0.06 | 0.06 | 21 | 1009.3 |
| 20260504001550 | 75 | 301 | 7.0 | 7.8 | 0.00 | 0.06 | 0.06 | 22 | 1009.3 |
| 20260504001045 | 75 | 335 | 7.8 | 9.6 | 0.00 | 0.06 | 0.06 | 22 | 1009.5 |
| 20260504000543 | 75 | 334 | 8.7 | 8.7 | 0.00 | 0.06 | 0.06 | 21 | 1009.7 |
| 20260504000040 | 75 | 326 | 7.8 | 12.2 | 0.00 | 0.06 | 0.06 | 21 | 1009.6 |
| 20260503235538 | 75 | 298 | 9.6 | 12.2 | 0.00 | 0.06 | 0.06 | 21 | 1009.6 |
| 20260503235035 | 75 | 311 | 6.1 | 8.7 | 0.00 | 0.06 | 0.06 | 22 | 1009.6 |
| 20260503234532 | 75 | 310 | 6.1 | 8.7 | 0.00 | 0.06 | 0.06 | 22 | 1009.8 |
| 20260503234026 | 74 | 297 | 5.2 | 6.1 | 0.00 | 0.06 | 0.06 | 21 | 1009.8 |
| 20260503233521 | 75 | 319 | 7.8 | 8.7 | 0.00 | 0.06 | 0.06 | 21 | 1009.7 |
| 20260503233018 | 74 | 330 | 8.7 | 9.6 | 0.00 | 0.06 | 0.06 | 22 | 1009.6 |
| 20260503232515 | 75 | 307 | 7.0 | 7.8 | 0.00 | 0.06 | 0.06 | 22 | 1009.8 |
| 20260503232012 | 74 | 268 | 9.6 | 9.6 | 0.00 | 0.06 | 0.06 | 22 | 1009.8 |
| 20260503231509 | 75 | 281 | 13.0 | 14.8 | 0.00 | 0.06 | 0.06 | 21 | 1009.7 |
| 20260503231006 | 74 | 303 | 4.3 | 7.0 | 0.00 | 0.06 | 0.06 | 23 | 1010.0 |
| 20260503230502 | 74 | 298 | 7.0 | 7.8 | 0.00 | 0.06 | 0.06 | 23 | 1010.2 |
| 20260503230000 | 75 | 281 | 10.4 | 13.9 | 0.00 | 0.06 | 0.06 | 22 | 1009.9 |
| 20260503225457 | 75 | 339 | 9.6 | 11.3 | 0.00 | 0.06 | 0.06 | 22 | 1010.1 |
| 20260503224952 | 74 | 329 | 3.5 | 5.2 | 0.00 | 0.06 | 0.06 | 22 | 1010.0 |
| 20260503224449 | 75 | 323 | 9.6 | 11.3 | 0.00 | 0.06 | 0.06 | 22 | 1010.1 |
| 20260503223947 | 75 | 306 | 6.1 | 7.8 | 0.00 | 0.06 | 0.06 | 22 | 1010.2 |
| 20260503223445 | 75 | 311 | 9.6 | 11.3 | 0.00 | 0.06 | 0.06 | 22 | 1010.1 |
| 20260503222940 | 75 | 287 | 11.3 | 13.9 | 0.00 | 0.06 | 0.06 | 21 | 1010.2 |
| 20260503222439 | 74 | 321 | 11.3 | 13.0 | 0.00 | 0.06 | 0.06 | 23 | 1010.1 |
| 20260503221936 | 74 | 293 | 5.2 | 7.0 | 0.00 | 0.06 | 0.06 | 22 | 1010.3 |
| 20260503221434 | 75 | 307 | 7.8 | 8.7 | 0.00 | 0.06 | 0.06 | 23 | 1010.6 |
| 20260503220931 | 75 | 306 | 7.8 | 7.8 | 0.00 | 0.06 | 0.06 | 22 | 1010.4 |
| 20260503220427 | 74 | 291 | 7.8 | 8.7 | 0.00 | 0.06 | 0.06 | 22 | 1010.8 |
| 20260503215924 | 74 | 314 | 13.9 | 15.6 | 0.00 | 0.06 | 0.06 | 22 | 1010.7 |
| 20260503215421 | 74 | 307 | 9.6 | 13.0 | 0.00 | 0.06 | 0.06 | 21 | 1010.7 |
| 20260503214919 | 73 | 302 | 5.2 | 6.1 | 0.00 | 0.06 | 0.06 | 22 | 1010.8 |
| 20260503214416 | 73 | 301 | 7.8 | 9.6 | 0.00 | 0.06 | 0.06 | 22 | 1011.0 |
| 20260503213914 | 74 | 273 | 13.0 | 13.9 | 0.00 | 0.06 | 0.06 | 22 | 1010.9 |
| 20260503213411 | 74 | 275 | 8.7 | 9.6 | 0.00 | 0.06 | 0.06 | 20 | 1011.0 |
| 20260503212908 | 74 | 278 | 6.1 | 7.0 | 0.00 | 0.06 | 0.06 | 22 | 1011.1 |
| 20260503212406 | 73 | 246 | 10.4 | 11.3 | 0.00 | 0.06 | 0.06 | 24 | 1011.2 |
| 20260503211902 | 73 | 262 | 9.6 | 11.3 | 0.00 | 0.06 | 0.06 | 22 | 1011.4 |
| 20260503211359 | 73 | 326 | 9.6 | 13.0 | 0.00 | 0.06 | 0.06 | 23 | 1011.4 |
| 20260503210854 | 73 | 305 | 14.8 | 15.6 | 0.00 | 0.06 | 0.06 | 22 | 1011.3 |
| 20260503210352 | 73 | 352 | 5.2 | 6.1 | 0.00 | 0.06 | 0.06 | 22 | 1011.5 |
| 20260503205847 | 73 | 318 | 10.4 | 12.2 | 0.00 | 0.06 | 0.06 | 23 | 1011.5 |
| 20260503205344 | 73 | 299 | 10.4 | 12.2 | 0.00 | 0.06 | 0.06 | 24 | 1011.7 |
| 20260503204840 | 72 | 294 | 9.6 | 12.2 | 0.00 | 0.06 | 0.06 | 24 | 1012.0 |
| 20260503204338 | 73 | 295 | 7.8 | 9.6 | 0.00 | 0.06 | 0.06 | 22 | 1011.9 |
| 20260503203835 | 73 | 285 | 13.0 | 13.9 | 0.00 | 0.06 | 0.06 | 22 | 1011.8 |
| 20260503203332 | 72 | 292 | 4.3 | 5.2 | 0.00 | 0.06 | 0.06 | 24 | 1012.1 |
| 20260503202829 | 74 | 278 | 8.7 | 12.2 | 0.00 | 0.06 | 0.06 | 24 | 1011.9 |
| 20260503202327 | 71 | 287 | 8.7 | 12.2 | 0.00 | 0.06 | 0.06 | 23 | 1011.9 |
| 20260503201825 | 72 | 289 | 15.6 | 16.5 | 0.00 | 0.06 | 0.06 | 23 | 1012.1 |
| 20260503201321 | 72 | 276 | 7.8 | 9.6 | 0.00 | 0.06 | 0.06 | 26 | 1012.1 |
| 20260503200819 | 73 | 315 | 8.7 | 11.3 | 0.00 | 0.06 | 0.06 | 25 | 1012.2 |
| 20260503200315 | 71 | 296 | 7.8 | 9.6 | 0.00 | 0.06 | 0.06 | 24 | 1012.3 |
| 20260503195813 | 72 | 279 | 7.8 | 8.7 | 0.00 | 0.06 | 0.06 | 24 | 1012.2 |
| 20260503195309 | 72 | 280 | 8.7 | 8.7 | 0.00 | 0.06 | 0.06 | 25 | 1012.3 |
| 20260503194806 | 73 | 305 | 8.7 | 9.6 | 0.00 | 0.06 | 0.06 | 25 | 1012.6 |
| 20260503194302 | 72 | 271 | 8.7 | 11.3 | 0.00 | 0.06 | 0.06 | 24 | 1012.2 |
| 20260503193758 | 72 | 323 | 7.8 | 9.6 | 0.00 | 0.06 | 0.06 | 25 | 1012.6 |
| 20260503193254 | 71 | 293 | 10.4 | 12.2 | 0.00 | 0.06 | 0.06 | 25 | 1012.8 |
| 20260503192750 | 71 | 323 | 7.8 | 9.6 | 0.00 | 0.06 | 0.06 | 28 | 1012.8 |
| 20260503192245 | 71 | 256 | 13.0 | 14.8 | 0.00 | 0.06 | 0.06 | 26 | 1012.8 |
| 20260503191743 | 71 | 259 | 14.8 | 16.5 | 0.00 | 0.06 | 0.06 | 27 | 1012.9 |
| 20260503191240 | 71 | 305 | 7.8 | 8.7 | 0.00 | 0.06 | 0.06 | 28 | 1012.9 |
| 20260503190736 | 70 | 244 | 14.8 | 15.6 | 0.00 | 0.06 | 0.06 | 26 | 1013.0 |
| 20260503190233 | 70 | 249 | 7.8 | 8.7 | 0.00 | 0.06 | 0.06 | 30 | 1013.4 |
| 20260503185731 | 70 | 323 | 4.3 | 7.0 | 0.00 | 0.06 | 0.06 | 30 | 1013.3 |
| 20260503185226 | 70 | 290 | 10.4 | 13.0 | 0.00 | 0.06 | 0.06 | 27 | 1013.1 |
| 20260503184721 | 71 | 295 | 8.7 | 9.6 | 0.00 | 0.06 | 0.06 | 27 | 1013.3 |
| 20260503184217 | 70 | 275 | 8.7 | 11.3 | 0.00 | 0.06 | 0.06 | 30 | 1013.5 |
| 20260503183714 | 69 | 276 | 6.1 | 7.0 | 0.00 | 0.06 | 0.06 | 29 | 1013.7 |
| 20260503183211 | 69 | 279 | 6.1 | 7.0 | 0.00 | 0.06 | 0.06 | 30 | 1013.7 |
| 20260503182709 | 70 | 281 | 6.1 | 7.8 | 0.00 | 0.06 | 0.06 | 28 | 1013.9 |
| 20260503182208 | 71 | 283 | 7.8 | 9.6 | 0.00 | 0.06 | 0.06 | 28 | 1013.9 |
| 20260503181703 | 69 | 295 | 11.3 | 18.2 | 0.00 | 0.06 | 0.06 | 29 | 1013.9 |
| 20260503181200 | 69 | 292 | 8.7 | 11.3 | 0.00 | 0.06 | 0.06 | 30 | 1014.1 |
| 20260503180657 | 68 | 301 | 8.7 | 9.6 | 0.00 | 0.06 | 0.06 | 29 | 1014.1 |
| 20260503180156 | 68 | 301 | 7.0 | 7.8 | 0.00 | 0.06 | 0.06 | 30 | 1014.1 |
| 20260503175652 | 69 | 315 | 9.6 | 12.2 | 0.00 | 0.06 | 0.06 | 30 | 1014.0 |
| 20260503175150 | 67 | 336 | 8.7 | 11.3 | 0.00 | 0.06 | 0.06 | 31 | 1014.2 |
| 20260503174646 | 68 | 312 | 8.7 | 9.6 | 0.00 | 0.06 | 0.06 | 30 | 1014.3 |
| 20260503174143 | 67 | 307 | 9.6 | 12.2 | 0.00 | 0.06 | 0.06 | 31 | 1014.2 |